Location: Grieser Field
(39.7333°N, 81.7975°W)
Time: 10:39:45
(UTC-04:00)

MOS 1-B - Visible Passes

Search period start: 29 August 2015 00:00
Search period end: 08 September 2015 00:00
Orbit: 905 x 914 km, 99.2° (Epoch: 28 August)

Date Brightness Start Highest point End Pass type
(mag) Time Alt. Az. Time Alt. Az. Time Alt. Az.
29 Aug 4.3 04:03:59 10° NNE 04:09:47 78° ESE 04:10:17 72° SSE visible
29 Aug 6.0 05:47:36 10° NNW 05:51:04 16° WNW 05:53:32 12° W visible
30 Aug 6.9 02:31:40 10° ENE 02:32:27 10° E 02:32:31 10° E visible
30 Aug 4.2 04:09:29 10° NNE 04:15:18 86° ESE 04:15:46 76° S visible
30 Aug 6.1 05:53:25 10° NNW 05:56:30 14° WNW 05:59:02 11° W visible
31 Aug 6.8 02:36:07 10° ENE 02:38:01 12° E 02:38:01 12° E visible
31 Aug 4.2 04:14:58 10° NNE 04:20:48 86° WNW 04:21:16 76° SSW visible
31 Aug 6.2 05:59:19 10° NNW 06:01:56 13° WNW 06:04:14 10° W visible
01 Sep 6.7 02:41:01 10° ENE 02:43:30 14° E 02:43:30 14° E visible
01 Sep 4.2 04:20:30 10° N 04:26:17 78° WNW 04:26:45 73° WSW visible
01 Sep 6.2 06:05:21 10° NW 06:07:21 12° WNW 06:09:01 10° WNW visible
02 Sep 6.6 02:46:05 10° NE 02:49:00 15° E 02:49:00 15° E visible
02 Sep 4.2 04:26:01 10° N 04:31:47 70° WNW 04:32:15 67° WSW visible
02 Sep 6.3 06:11:51 10° NW 06:12:45 10° WNW 06:13:19 10° WNW visible
03 Sep 6.5 02:51:14 10° NE 02:54:29 17° E 02:54:29 17° E visible
03 Sep 4.3 04:31:32 10° N 04:37:16 63° WNW 04:37:44 61° W visible
04 Sep 6.4 02:56:27 10° NE 02:59:58 19° E 02:59:58 19° E visible
04 Sep 4.4 04:37:05 10° N 04:42:45 57° WNW 04:43:13 55° W visible
05 Sep 6.3 03:01:43 10° NE 03:05:28 22° E 03:05:28 22° E visible
05 Sep 4.5 04:42:37 10° N 04:48:14 51° WNW 04:48:43 50° W visible
06 Sep 6.1 03:07:01 10° NE 03:10:57 24° E 03:10:57 24° E visible
06 Sep 4.6 04:48:11 10° N 04:53:42 46° WNW 04:54:12 45° W visible
07 Sep 6.0 03:12:21 10° NE 03:16:26 26° E 03:16:26 26° E visible
07 Sep 4.8 04:53:45 10° N 04:59:10 42° WNW 04:59:41 41° W visible
